Date,TemperatureHighF,TemperatureAvgF,TemperatureLowF,DewpointHighF,DewpointAvgF,DewpointLowF,HumidityHigh,HumidityAvg,HumidityLow,PressureMaxIn,PressureMinIn,WindSpeedMaxMPH,WindSpeedAvgMPH,GustSpeedMaxMPH,PrecipitationSumIn
2013-3-1,44,41,38,31,29,26,71,61,52,29.91,29.83,14,2,14,0.00
2013-3-2,45,38,32,29,26,20,84,63,48,29.93,29.80,13,1,13,0.00
2013-3-3,44,35,28,23,20,15,66,53,40,29.99,29.86,16,2,16,0.00
2013-3-4,53,38,25,23,17,14,73,44,22,30.12,29.98,20,2,20,0.00
2013-3-5,44,42,37,42,34,20,100,76,45,30.06,29.57,18,0,18,2.70
2013-3-6,47,40,36,40,30,25,96,69,48,30.07,29.55,28,5,28,0.70
2013-3-7,52,42,35,32,29,25,77,61,44,30.25,30.06,17,2,17,0.00
2013-3-8,55,43,33,28,26,24,71,52,32,30.31,30.18,16,2,16,0.00
2013-3-9,61,48,34,34,30,26,73,53,34,30.34,30.23,10,0,10,0.00
2013-3-10,67,52,36,38,33,28,80,51,29,30.30,30.17,12,1,12,0.00
2013-3-11,65,54,41,54,43,27,92,68,43,30.19,29.84,14,1,14,0.80
2013-3-12,66,57,46,58,48,31,97,75,34,29.95,29.71,16,3,16,7.60
2013-3-13,54,44,34,35,27,16,87,55,33,30.15,29.95,24,4,24,0.00
2013-3-14,51,41,31,24,18,15,61,42,26,30.25,30.12,12,3,16,0.00
2013-3-15,63,42,29,37,26,19,79,53,36,30.18,29.85,18,1,18,0.00
2013-3-16,77,63,48,56,46,37,74,57,37,29.87,29.62,22,2,22,0.00
2013-3-17,60,50,39,52,45,37,93,82,68,30.14,29.80,15,2,15,0.00
2013-3-18,40,38,37,39,37,36,97,95,93,30.17,29.83,9,1,11,2.70
2013-3-19,64,52,37,43,29,12,97,50,21,30.03,29.82,15,4,27,0.00
2013-3-20,55,46,40,29,14,9,49,27,21,30.09,29.74,15,2,17,0.00
2013-3-21,47,42,36,28,26,22,58,52,44,29.77,29.74,19,3,19,0.00
2013-3-22,51,32,22,22,15,13,73,50,26,30.08,29.96,15,2,15,0.00
2013-3-23,57,45,36,33,27,22,65,51,36,30.05,29.89,5,0,5,0.00
2013-3-24,43,39,35,37,35,30,95,86,64,29.92,29.53,15,1,15,6.80
2013-3-25,46,39,34,37,29,23,97,70,45,29.83,29.55,33,5,33,0.30
2013-3-26,46,40,34,30,27,25,75,60,46,30.14,29.82,15,2,15,0.00
2013-3-27,49,41,34,27,24,22,71,53,37,30.24,30.12,19,3,19,0.00
2013-3-28,38,35,33,24,23,22,68,60,54,30.24,30.21,7,2,7,0.00
2013-3-29,60,45,32,34,27,24,77,52,27,30.33,30.16,12,2,15,0.00
2013-3-30,66,54,42,40,35,29,72,51,31,30.22,30.05,11,1,12,0.00
2013-3-31,66,55,48,56,50,40,99,83,64,30.06,29.78,17,2,17,3.70